Regional Weather Roundup
Issued by NWS Kansas City/Pleasant Hill, MO

Home | Current Version | Previous Version | Graphics & Text | Print | Product List | Glossary Off
Versions: 1 2 3 4 5 6 7 8 9 10 11 12 13 14 15 16 17 18 19 20 21 22 23 24 25 26 27 28 29 30 31 32 33 34 35 36 37 38 39 40 41 42 43 44 45 46 47 48 49 50

000
ASUS43 KEAX 290310
RWREAX

WEATHER ROUNDUP FOR EASTERN KANSAS AND NORTHWEST MISSOURI
NATIONAL WEATHER SERVICE KANSAS CITY/PLEASANT HILL MO
900 PM CST FRI NOV 28 2014

KSZ040-057-103>105-MOZ028-029-037-043-290400-
...KANSAS CITY METROPOLITAN AREA...

CITY           SKY/WX    TMP DP  RH WIND       PRES   REMARKS
K.C. INTL      CLOUDY    53  36  52 S18G26    29.75F
K.C. DOWNTOWN  CLOUDY    56  36  47 S16       29.76F
LEES SUMMIT    CLOUDY    52  37  56 SW12      29.78F
OLATHE - IXD   CLOUDY    49  36  61 S12       29.78F
OLATHE - OJC   CLOUDY    52  36  54 S13       29.77F
LAWRENCE       CLOUDY    50  35  56 S7        29.77F

$$

MOZ001>008-011>017-020>025-030>033-038>040-044>046-053-054-290400-
...NORTHERN AND CENTRAL MISSOURI...

CITY           SKY/WX    TMP DP  RH WIND       PRES   REMARKS
ST. JOSEPH     MOCLDY    51  36  56 S14       29.71F
MOSBY          MOCLDY    54  36  50 S8        29.76F
WARRENSBURG    MOCLDY    52  36  54 S12G17    29.79F
WHITEMAN AFB   MOCLDY    50  37  61 SW14      29.79F
CLINTON        PTCLDY    52  37  58 S9        29.83F
SEDALIA        PTCLDY    54  36  50 SW15      29.81F
WARSAW         NOT AVBL
MARSHALL       MOCLDY    50  39  66 S8        29.80F
CHILLICOTHE      N/A     49  36  61 S9        29.75F
KIRKSVILLE     MOCLDY    43  34  70 S9        29.78F

$$

MOZ041-047>049-056>058-063>065-088>090-097-290400-
...EASTERN AND SOUTHERN MISSOURI...

CITY           SKY/WX    TMP DP  RH WIND       PRES   REMARKS
ST. LOUIS INTL PTCLDY    45  33  63 S10       29.91F
SPIRIT OF STL  CLEAR     45  33  63 S5        29.89F
COLUMBIA       MOCLDY    49  35  58 S10       29.84S
JEFFERSON CITY PTCLDY    51  35  54 S9        29.85F
MEXICO         MOCLDY    46  39  76 S12       29.83S
ROLLA          PTCLDY    46  33  60 S18       29.87S
LEBANON        CLEAR     48  36  61 S14       29.89F
OSAGE BEACH    CLEAR     50  34  53 S10G16    29.87S
SPRINGFIELD    PTCLDY    50  36  58 S13       29.89F
BRANSON        MOCLDY    45  36  70 S3        29.94F
JOPLIN         CLOUDY    56  40  55 S17       29.87F
WEST PLAINS    PTCLDY    44  32  62 S8        29.97S

$$

IAZ060-094-KSZ022-034>040-054-083-096-NEZ052-066-093-290400-
...KANSAS...SOUTHEAST NEBRASKA AND IOWA...

CITY           SKY/WX    TMP DP  RH WIND       PRES   REMARKS
TOPEKA         CLOUDY    55  36  48 S7        29.75F
MANHATTAN      CLOUDY    53  37  54 SW13      29.73F
EMPORIA        CLOUDY    51  37  58 S13       29.78F
CHANUTE        CLOUDY    54  41  61 S13       29.83S
WICHITA        MOCLDY    50  38  63 S13       29.78F
OMAHA          CLOUDY    39  31  72 SE13      29.63F WCI  31
LINCOLN        MOCLDY    50  32  50 SW10      29.64F
FALLS CITY     MOCLDY    53  35  50 SW16G25   29.67F
LAMONI         CLOUDY    42  33  70 S13       29.70F
DES MOINES     PTCLDY    38  30  73 E6        29.70F WCI  33

$$




USA.gov is the U.S. government's official web portal to all federal, state and local government web resources and services.